[Iaude] MPEC E163: 2024 EL3 [a=1.77,e=0.54,i=4.8,H=28.7]
    mpec at cfa.harvard.edu 
    mpec at cfa.harvard.edu
       
    Wed Mar 13 08:45:19 EDT 2024
    
    
  
M.P.E.C. 2024-E163                               Issued 2024 March 13, 12:43 UT
     The Minor Planet Electronic Circulars contain information on unusual
         minor planets, routine data on comets and natural satellites,
         and occasional editorial announcements.  They are published
    on behalf of Division F of the International Astronomical Union by the
          Minor Planet Center, Smithsonian Astrophysical Observatory,
                          Cambridge, MA 02138, U.S.A.
			  
             Prepared using the Tamkin Foundation Computer Network
                              MPC at CFA.HARVARD.EDU
            URL https://www.minorplanetcenter.net/    ISSN 1523-6714
                                    2024 EL3                                    
Observations:
     K24E03L* C2024 03 12.23748312 12 05.818-15 56 35.81         18.05oVEE163W68
     K24E03L  C2024 03 12.26990312 11 31.870-15 52 38.10         18.79oVEE163W68
     K24E03L  C2024 03 12.27310312 11 28.663-15 52 15.13         18.12oVEE163W68
     K24E03L  C2024 03 12.30156212 11 01.932-15 48 50.18         18.68oVEE163W68
     K24E03L mC2024 03 12.38115512 10 45.080-16 02 13.52         18.99GVEE163I52
     K24E03L mC2024 03 12.38157912 10 44.756-16 02 10.61         18.91GVEE163I52
     K24E03L mC2024 03 12.38200512 10 44.425-16 02 07.66         18.62GVEE163I52
     K24E03L mC2024 03 12.38242912 10 44.062-16 02 04.56         18.89GVEE163I52
     K24E03L KC2024 03 12.92985212 09 12.00 -15 25 05.9          19.0 GXEE163958
     K24E03L KC2024 03 12.93528412 09 10.01 -15 24 55.7                XEE163958
     K24E03L KC2024 03 12.94074412 09 08.07 -15 24 43.8          19.4 GXEE163958
     K24E03L KC2024 03 12.95218612 08 54.12 -15 24 43.8          20.1 GVEE163L01
     K24E03L KB2024 03 12.95624012 09 01.35 -15 24 16.7          20.1 GXEE163I93
     K24E03L KC2024 03 12.95723312 08 52.16 -15 24 31.9          20.3 GVEE163L01
     K24E03L KC2024 03 12.95849612 08 51.67 -15 24 28.8          20.1 GVEE163L01
     K24E03L KC2024 03 12.95975812 08 51.17 -15 24 26.0          20.2 GVEE163L01
     K24E03L KB2024 03 12.96119812 08 59.51 -15 24 05.3          20.1 GXEE163I93
     K24E03L KB2024 03 12.96615012 08 57.69 -15 23 54.6          20.0 GXEE163I93
     K24E03L |C2024 03 13.16688012 08 31.070-15 03 33.40         20.2 GVEE163807
     K24E03L |C2024 03 13.16835012 08 30.570-15 03 31.50         20.3 GVEE163807
     K24E03L |C2024 03 13.17128012 08 29.540-15 03 28.30         19.9 GVEE163807
Observer details:
807 Cerro Tololo Observatory, La Serena.  Observers T. Linder, R. Holmes.
    0.61-m f/6.8 Ritchey-Chretien + CCD.
958 Observatoire de Dax.  Observers P. Dupouy, J. B. de Vanssay.  Measurer P.
    Dupouy.  0.43-m f/2.7 Reflector + CCD.
I52 Steward Observatory, Mt. Lemmon Station.  Observer H. Groeller.  Measurers
    T. Beuden, V. F. Carvajal, D. Fay, J. B. Fazekas, D. C. Fuls, A. R. Gibbs,
    A. D. Grauer, H. Groeller, J. K. Hogan, R. A. Kowalski, S. M. Larson, G.
    J. Leonard, D. Rankin, R. L. Seaman, F. C. Shelly, K. W. Wierzchos.  1.0-m
    prime focus + CCD.
I93 St Pardon de Conques.  Observer F. Losse.  0.40-m f/3.7 reflector + CCD.
L01 Visnjan Observatory, Tican.  Observers K. Korlevic, I. Lyon.  Measurer K.
    Korlevic.  1.0-m f/2.9 reflector + CCD.
W68 ATLAS Chile, Rio Hurtado.  Observers L. Denneau, R. Siverd, J. Tonry, H.
    Weiland.  Measurers L. Denneau, N. Erasmus, A. Fitzsimmons, J. Robinson,
    R. Siverd, J. Tonry, H. Weiland.  0.5-m Reflector + CCD.
Orbital elements:
2024 EL3                                                 Earth MOID = 0.0001 AU
Epoch 2024 Mar. 31.0 TT = JDT 2460400.5                 Veres                   
M  25.93372              (2000.0)            P               Q                  
n   0.41995308     Peri.  118.98964     -0.34150112     -0.93978872             
a   1.7660468      Node   350.94916     +0.83050524     -0.29515660             
e   0.5392229      Incl.    4.81197     +0.44004321     -0.17227807             
P   2.35           H   28.77          G   0.15           U   7                  
Residuals in seconds of arc
240312 W68  0.0   0.1+    240312 I52  0.0   0.1+    240312 L01  0.2+  0.0
240312 W68  0.4+  0.0     240312 958  0.4+  0.0     240312 L01  0.0   0.3-
240312 W68  0.0   0.3-    240312 958  0.7+  1.2-    240312 I93  0.4+  0.5+
240312 W68  0.2+  0.0     240312 958  2.0+  1.0-    240312 I93  1.1+  0.3+
240312 I52  0.4-  0.0     240312 L01  0.2+  0.2+    240313 807  0.7-  0.1+
240312 I52  0.0   0.0     240312 I93  0.0   0.0     240313 807  0.2-  0.2+
240312 I52  0.2+  0.1-    240312 L01  0.2+  0.0     240313 807  0.3+  0.3-
Ephemeris:
2024 EL3                 a,e,i = 1.77, 0.54, 5                   q = 0.8138
Date    TT    R. A. (2000) Decl.     Delta      r    Elong.  Phase     V
2024 02 12    00 14 39.6 +16 37 13   0.2190  0.8599    49.1   119.8    30.0
...
2024 02 27    00 23 56.5 +18 38 22   0.1012  0.9125    38.0   138.1    30.2
...
2024 03 06    00 24 57.4 +18 57 27   0.04062 0.9576    31.3   147.5    29.7
...
2024 03 12    12 15 12.3 -16 46 05   0.0042250.9976   156.9    23.0    18.0
2024 03 13    12 08 37.5 -15 11 53   0.01168 1.0049   159.8    20.0    20.1
2024 03 14    12 07 10.6 -14 50 27   0.01914 1.0123   161.0    18.6    21.2
...
2024 03 20    12 05 30.5 -14 19 29   0.06424 1.0581   165.4    13.7    23.7
...
2024 03 28    12 05 13.2 -13 54 57   0.1262  1.1218   167.8    10.9    25.2
...
2024 04 12    12 07 14.4 -13 05 40   0.2537  1.2451   161.1    15.1    27.1
M. P. C. Staff               (C) Copyright 2024 MPC           M.P.E.C. 2024-E163
    
    
More information about the Iaude
mailing list